GLONASS-K 1

Last updated on Mon Jan 10 2022 00:02:29 GMT+0000 (Coordinated Universal Time)

1 37372U 11009A 22009.22674221 -.00000056 00000+0 00000+0 0 9992 2 37372 65.9501 8.6965 0017508 233.8406 194.4523 2.13063322 84575

Satellite not in orbit

GLONASS-K 1